This demonstration page uses our WeatherBlox Daily Observations layout. Learn more.

Left ArrowRight Arrow

44.89941, -97.11507

Hourly Observations for September 29, 2022

Temp ( °F °C ) Dew Point ( °F °C ) Humidity (%) Winds ( mph kmh ) Pressure ( in mb ) Visibility ( mi km ) Precip ( " mm )
12:53 am 00:53 Clear 51 10.6 31 -0.6 46 46 SSE 14 22 30.30 1026 10 16 0.00 0.00
1:53 am 01:53 Clear 50 10 32 0 50 50 SSE 14 22 30.27 1025 10 16 0.00 0.00
2:53 am 02:53 Clear 50 10 34 1.1 54 54 SSE 16 26 30.26 1025 10 16 0.00 0.00
3:53 am 03:53 Clear 50 10 35 1.7 56 56 S 15 24 30.24 1024 10 16 0.00 0.00
4:53 am 04:53 Clear 50 10 36 2.2 58 58 SSE 14 22 30.22 1024 10 16 0.00 0.00
5:53 am 05:53 Clear 48 8.9 37 2.8 66 66 SSE 15 24 30.22 1023 10 16 0.00 0.00
6:53 am 06:53 Clear 46 7.8 36 2.2 68 68 SSE 14 22 30.21 1023 10 16 0.00 0.00
7:53 am 07:53 Sunny 46 7.8 37 2.8 71 71 SSE 13 20 30.20 1023 10 16 0.00 0.00
8:53 am 08:53 Sunny 53 11.7 37 2.8 54 54 S 21 33 30.20 1023 10 16 0.00 0.00
9:53 am 09:53 undefined 57 13.9 38 3.3 49 49 undefined N/A 30.19 1022 N/A 0.00 0.00
10:53 am 10:53 Sunny 61 16.1 38 3.3 42 42 S 20 31 30.15 1021 10 16 0.00 0.00
11:53 am 11:53 undefined 67 19.4 40 4.4 37 37 undefined N/A 30.13 1020 10 16 0.00 0.00
12:53 pm 12:53 undefined 71 21.7 41 5 34 34 undefined N/A 30.09 1019 10 16 0.00 0.00
1:53 pm 13:53 undefined N/A N/A N/A undefined N/A 30.16 1021 N/A 0.00 0.00
2:53 pm 14:53 undefined N/A N/A N/A undefined N/A 30.14 1021 N/A 0.00 0.00
3:53 pm 15:53 undefined 74 23.3 43 6.1 33 33 undefined N/A 30.03 1017 N/A 0.00 0.00
4:53 pm 16:53 undefined N/A N/A N/A undefined N/A 30.10 1019 N/A 0.00 0.00
5:53 pm 17:53 undefined N/A N/A N/A undefined N/A 30.10 1019 N/A 0.00 0.00
6:53 pm 18:53 undefined N/A N/A N/A undefined N/A 30.10 1019 N/A 0.00 0.00
7:53 pm 19:53 undefined N/A N/A N/A undefined N/A 30.10 1019 10 16 0.00 0.00
8:53 pm 20:53 undefined 64 17.8 42 5.6 45 45 undefined N/A 30.03 1017 N/A 0.00 0.00
9:53 pm 21:53 undefined 61 16.1 42 5.6 50 50 undefined N/A 30.04 1017 N/A 0.00 0.00
10:53 pm 22:53 undefined 61 16.1 40 4.4 46 46 undefined N/A 30.03 1017 10 16 0.00 0.00
11:53 pm 23:53 undefined 60 15.6 39 3.9 46 46 undefined N/A 30.02 1017 10 16 0.00 0.00

Powered by AerisWeather